GFSNE_850_temp_021.txt.gz
Temp
19 19 18 18 17 17 17 16 16 17 17 17 16 16 16 16 16 16 16 15 15 15 15 15 15 15 15 14 14 14 14 14 14 14 14 14 13 13
20 20 19 19 18 17 17 16 16 16 17 16 16 16 16 16 16 16 15 15 15 15 15 15 14 14 14 14 14 14 14 14 14 14 14 13 13 13
20 21 20 20 19 18 18 17 16 16 16 16 16 16 16 16 16 16 15 15 15 15 15 15 15 14 14 14 14 14 14 14 14 13 13 13 13 13
21 20 21 20 20 20 19 18 17 16 15 15 15 16 16 16 16 15 15 15 15 15 15 15 14 14 13 13 13 13 14 14 13 13 13 13 13 13
21 21 21 20 19 19 19 18 18 17 16 15 15 15 16 15 15 15 15 15 15 15 15 14 14 14 14 14 13 13 13 13 13 13 12 12 12 12
20 20 19 18 19 19 18 18 17 17 16 15 15 14 15 14 15 15 14 14 15 14 15 14 14 14 13 13 13 13 13 12 12 12 11 11 11 11
20 20 19 19 18 18 17 17 17 16 16 14 14 14 14 14 14 14 14 14 13 14 14 14 13 12 12 12 12 12 11 11 11 11 11 11 10 11
20 20 19 19 18 17 17 16 16 16 15 14 14 14 14 15 14 14 13 13 14 13 13 13 12 12 12 11 11 12 11 10 10 10 10 10 10 10
20 20 19 19 18 17 16 16 16 15 15 15 15 15 14 15 14 14 14 13 13 12 12 12 12 11 11 11 11 11 11 11 11 10 10 9 9 9
20 20 19 19 18 18 17 16 15 15 16 15 15 15 14 14 14 14 14 13 13 12 11 11 11 11 10 10 11 11 10 10 10 10 9 9 9 8
20 20 19 19 18 18 16 15 15 15 15 15 14 14 14 14 14 13 13 13 12 12 10 10 10 10 10 9 9 10 10 9 9 9 9 8 8 8
20 19 19 18 18 17 16 15 15 16 15 15 14 14 14 14 13 13 12 11 12 11 10 9 10 9 10 10 8 8 8 8 8 8 8 9 9 8
20 20 19 18 18 17 16 15 15 16 15 14 14 14 14 13 13 13 12 11 11 10 9 9 9 9 9 8 8 8 8 8 8 8 8 8 8 8
20 20 19 18 17 16 16 15 15 14 14 14 14 13 13 12 12 12 12 11 10 10 9 9 8 8 8 8 9 9 9 8 8 8 8 7 7 7
19 19 19 18 16 16 15 15 14 14 14 14 13 13 13 12 12 12 11 10 10 9 9 9 8 7 7 7 8 8 8 9 8 8 8 7 7 6
17 16 16 16 15 16 15 14 14 15 14 14 13 13 12 12 11 11 10 10 9 9 8 8 8 7 7 7 8 8 8 8 8 8 7 6 6 7
15 15 16 13 14 15 14 14 14 14 14 13 13 13 12 12 11 10 10 9 9 9 8 8 7 7 7 8 7 8 8 8 8 7 6 6 6 6
16 15 15 14 14 15 14 14 14 14 13 13 13 12 12 11 10 10 10 9 8 8 7 7 7 7 8 8 8 8 8 8 7 6 5 6 6 6
15 15 15 14 14 14 14 14 14 14 13 13 12 12 11 10 10 9 8 8 8 7 7 7 7 7 8 9 9 7 6 6 6 6 6 6 5 5
18 15 15 14 14 14 14 14 13 13 13 12 12 11 11 10 10 8 8 8 7 7 7 7 7 7 7 7 7 7 7 6 6 5 5 5 5 4
14 13 14 14 14 14 14 13 13 13 12 12 12 11 11 10 9 8 8 8 7 7 7 7 7 7 7 7 7 8 7 6 5 4 3 3 4 4
13 14 14 14 15 14 14 13 13 12 12 12 11 11 10 10 9 8 8 7 7 7 7 7 7 7 6 7 7 7 7 6 5 4 4 3 2 2
16 14 15 15 15 15 14 13 13 12 12 11 11 10 10 10 9 8 8 7 7 7 7 7 7 7 7 7 6 7 6 5 5 5 5 3 3 2

GFSNE_850_temp_024.txt.gz
Temp
20 21 20 18 18 18 18 18 19 20 20 18 18 17 17 17 16 16 16 15 16 16 15 15 15 15 15 15 15 14 14 14 14 14 14 14 14 14
19 20 21 19 18 18 18 18 18 19 20 19 18 18 17 17 16 16 15 16 16 16 15 15 15 15 15 14 14 14 14 14 14 14 14 14 14 14
20 20 21 19 18 18 17 18 18 18 18 19 18 17 16 16 16 16 15 15 16 15 15 15 15 16 15 15 14 14 14 14 14 14 14 14 14 13
20 20 19 18 20 19 17 17 17 17 17 17 18 17 16 16 15 15 15 16 16 16 15 15 15 16 15 14 14 14 14 14 14 14 14 13 13 13
20 20 18 19 20 18 18 17 17 16 16 17 17 17 17 16 15 15 14 14 15 15 15 15 15 15 15 14 14 14 14 13 13 13 13 13 13 13
21 20 18 18 20 20 19 19 17 17 16 16 17 17 17 16 15 16 16 16 15 15 15 15 14 14 14 14 13 13 12 12 12 12 11 12 12 12
21 21 19 18 20 19 19 18 17 17 17 17 17 17 17 17 16 16 17 16 16 15 14 14 14 14 13 13 13 13 12 11 11 11 11 11 11 11
21 21 20 19 20 19 19 18 18 17 16 17 17 18 17 16 16 16 16 16 16 15 14 15 15 15 14 14 14 13 12 11 11 11 11 11 11 10
22 20 18 18 20 19 19 18 17 17 17 15 15 16 16 15 15 15 14 14 15 15 14 14 14 15 14 14 13 12 11 11 11 11 10 10 10 10
20 19 18 18 20 20 19 18 17 17 16 16 15 15 15 14 14 14 14 14 13 14 13 13 14 14 13 13 12 11 10 10 10 10 10 10 9 9
19 18 18 18 20 20 19 18 16 16 15 16 16 14 14 15 14 14 14 14 15 15 14 13 13 13 12 12 12 11 10 10 10 10 10 9 9 9
19 19 20 19 20 20 19 18 16 16 15 15 16 15 14 15 14 14 14 14 14 15 14 12 13 12 12 12 11 11 10 10 10 9 9 9 9 9
20 19 17 20 20 19 19 17 17 16 15 14 14 15 14 14 14 14 13 13 14 14 13 11 12 12 12 12 12 11 11 11 10 10 10 10 9 9
20 20 18 21 21 19 18 17 16 15 15 14 14 14 13 13 13 12 13 13 12 13 11 11 10 10 11 11 11 11 11 11 10 10 10 10 9 9
21 19 18 21 20 18 17 16 15 15 14 14 14 14 14 14 13 13 13 13 12 12 11 11 10 9 10 10 10 10 10 10 10 10 10 10 10 9
18 18 17 18 17 16 16 15 16 14 15 14 14 14 13 12 12 11 11 11 11 11 10 10 10 10 9 9 10 10 10 10 10 10 10 9 9 9
18 17 17 16 16 15 15 15 15 14 15 14 14 14 12 12 12 12 12 12 11 12 12 10 9 10 8 8 9 9 10 10 10 10 9 9 9 9
17 17 16 16 15 15 15 15 14 14 13 13 13 13 12 12 12 12 11 11 11 12 11 11 10 10 10 10 10 10 10 10 9 9 8 9 9 9
17 16 16 15 16 16 16 15 15 13 13 13 13 13 13 12 12 12 11 11 11 11 10 10 10 10 10 11 11 10 9 9 8 8 8 8 8 7
16 16 16 16 17 16 14 13 13 13 13 13 13 13 13 13 12 12 12 11 11 11 10 10 10 10 10 10 9 9 8 8 8 8 7 7 7 6
15 15 16 17 15 14 13 13 13 13 13 13 13 13 13 12 12 12 12 11 10 10 10 10 10 9 8 8 9 10 10 9 8 7 6 6 6 6
14 14 14 14 13 13 14 13 13 13 12 12 13 13 12 12 12 12 11 11 9 9 10 10 9 8 8 9 10 10 9 9 8 7 7 6 5 5
13 13 13 13 13 14 13 13 13 13 12 13 13 12 12 12 11 12 11 11 11 10 10 10 10 9 9 9 9 9 9 9 8 8 7 7 5 4

GFSNE_850_temp_030.txt.gz
Temp
21 21 20 20 20 20 20 20 20 20 20 20 19 19 19 18 18 17 17 17 16 16 16 16 16 16 16 16 15 15 15 14 14 14 14 14 14 14
20 21 22 21 20 20 20 20 20 20 20 20 20 19 19 18 18 18 17 17 16 16 17 17 16 16 16 16 16 16 15 15 14 14 14 14 14 14
19 19 21 22 21 20 20 20 20 20 20 20 20 19 19 19 18 17 17 16 16 17 16 16 16 16 16 16 16 16 16 15 14 14 14 14 14 14
20 20 20 21 21 21 20 20 20 19 19 20 20 19 19 19 18 18 17 16 16 16 16 16 16 16 16 16 15 15 15 15 15 14 14 14 14 13
20 20 20 21 22 21 21 20 20 19 19 19 19 19 19 18 18 17 17 17 17 17 17 16 16 16 16 16 16 15 15 14 14 14 14 13 13 13
20 19 20 20 21 22 21 21 20 20 19 19 19 19 18 18 18 18 18 17 17 17 16 16 16 16 16 16 15 15 14 14 13 13 12 12 12 13
22 20 19 20 21 22 22 22 22 20 19 19 18 18 18 18 18 18 17 17 17 17 16 16 16 16 16 16 15 15 14 14 14 13 12 12 12 12
22 21 20 20 21 21 22 21 21 21 20 20 19 19 19 19 19 19 17 17 17 16 17 16 16 15 15 15 15 15 14 13 12 12 12 12 12 12
22 22 21 21 20 20 20 21 21 20 20 21 20 19 19 19 19 18 18 17 17 16 16 15 15 15 15 15 15 14 14 13 13 12 12 12 12 12
22 22 22 21 20 20 20 20 20 20 20 20 20 20 19 19 18 18 17 17 17 17 16 15 16 15 15 15 14 14 13 13 13 12 12 11 11 11
22 22 21 21 21 20 19 20 21 20 20 20 20 20 19 18 18 17 17 17 17 17 16 15 15 15 15 14 14 14 13 13 12 12 11 11 11 10
21 21 21 21 21 21 19 19 19 20 20 20 19 18 18 17 16 16 16 16 16 15 16 15 15 15 14 14 14 14 13 13 12 12 11 11 11 11
20 20 20 20 20 20 20 19 20 19 20 20 20 19 18 17 17 16 15 15 15 15 15 15 15 15 14 14 13 13 13 13 12 12 11 11 11 11
20 20 20 20 19 19 19 19 19 18 18 19 18 19 17 17 17 16 15 16 15 15 15 15 15 15 14 13 13 13 13 12 12 12 11 11 11 11
19 19 20 21 20 20 19 19 18 18 18 17 17 18 18 18 17 16 15 15 15 16 15 16 14 14 14 13 12 12 12 12 11 11 11 11 11 11
21 20 19 19 20 21 20 20 19 18 18 18 17 18 18 16 15 15 15 15 14 13 14 15 14 13 13 13 12 12 12 11 11 11 11 11 11 10
22 22 20 20 19 20 20 20 20 18 18 18 17 17 16 15 15 14 14 14 13 14 14 14 13 12 12 12 11 12 12 11 11 11 11 11 10 10
20 20 20 20 21 20 19 20 19 18 18 17 17 16 15 14 15 14 14 13 13 13 13 13 13 12 11 11 11 12 12 11 11 11 11 10 9 9
21 19 19 19 19 19 20 19 18 18 17 17 16 16 15 14 14 13 13 12 13 13 13 13 13 12 12 11 11 12 12 11 11 11 10 9 9 9
20 17 17 18 18 18 18 19 17 17 17 16 16 15 15 14 13 13 12 13 13 13 13 13 13 12 12 11 11 12 12 11 11 10 9 10 9 9
17 14 15 15 16 16 17 16 16 16 16 16 15 15 15 15 14 12 12 13 13 13 13 13 12 12 12 11 11 11 11 11 11 10 10 10 9 8
15 14 14 14 14 15 15 15 15 16 16 15 14 14 13 14 12 12 13 13 13 13 13 13 12 12 11 11 11 11 11 11 11 11 10 10 9 9
14 14 14 14 14 15 13 14 14 14 14 13 13 13 13 13 13 13 14 13 13 13 13 12 12 12 11 11 11 10 11 11 11 11 10 10 9 9

GFSNE_850_temp_036.txt.gz
Temp
20 20 20 20 20 20 20 20 20 20 20 20 19 20 19 19 18 18 18 17 17 17 17 17 17 17 16 16 16 16 15 15 15 15 14 14 13 13
20 21 21 21 20 20 20 20 20 20 20 20 20 20 20 19 19 18 18 18 17 17 17 17 17 17 17 16 16 16 15 15 15 15 14 14 14 13
20 20 21 22 21 21 21 20 20 20 20 20 20 20 20 19 19 19 18 18 18 17 17 16 16 16 16 16 16 15 15 15 15 15 14 14 13 13
21 20 21 21 22 21 21 21 21 20 20 21 21 20 20 19 19 19 18 18 18 17 17 17 16 16 16 16 16 15 15 15 15 14 14 14 13 13
21 21 22 21 21 22 22 21 21 21 20 20 20 20 20 19 19 19 18 18 18 18 17 16 16 16 16 16 16 15 15 15 14 14 14 13 13 12
22 21 21 22 22 21 21 21 21 20 20 20 20 20 20 20 19 19 18 18 18 18 18 18 17 16 16 16 16 15 15 15 15 14 14 13 12 12
22 22 22 22 22 22 22 21 20 20 20 20 19 19 19 19 19 19 18 18 18 18 18 17 17 17 16 16 16 15 15 15 15 14 13 13 13 13
21 22 22 22 22 22 21 22 22 20 20 20 20 19 20 20 20 19 19 18 18 18 18 18 17 17 17 17 16 15 15 15 15 14 14 13 13 13
21 21 22 22 22 22 22 21 21 21 20 20 20 20 20 21 21 20 19 19 19 19 18 18 18 18 18 17 16 16 15 15 15 14 13 13 13 13
21 21 21 22 22 22 22 21 21 21 21 21 20 21 20 20 20 20 20 20 19 19 19 18 18 17 17 17 16 16 14 15 14 14 13 13 13 12
20 21 21 22 21 20 20 20 20 21 21 21 21 20 20 20 19 19 18 19 18 19 18 18 18 17 17 17 16 16 15 14 14 14 13 13 12 11
20 20 20 19 19 19 19 19 19 20 19 19 20 20 20 19 19 18 18 18 18 18 18 17 17 17 16 16 16 15 15 14 14 14 13 12 11 11
20 20 20 20 20 19 19 19 19 19 19 19 18 18 19 19 19 19 18 17 17 18 18 17 17 17 16 17 16 15 14 14 14 13 13 12 12 11
20 20 20 20 20 20 20 20 20 20 19 19 19 19 18 18 19 19 19 19 18 18 18 17 16 16 16 16 15 14 13 14 14 13 12 12 11 11
20 20 21 20 20 20 20 20 20 19 19 19 19 19 19 19 18 17 17 17 16 16 17 16 16 15 15 16 14 14 13 14 13 13 12 12 11 11
20 20 21 21 20 21 21 21 21 21 20 20 19 20 19 19 18 18 18 17 17 16 16 15 16 15 14 14 13 13 13 14 13 13 12 11 11 11
21 21 21 21 20 21 21 21 21 21 21 21 20 19 18 18 18 18 17 17 16 16 15 15 14 14 13 12 12 12 13 13 13 13 11 11 11 10
20 20 20 20 20 19 18 18 19 18 18 18 17 17 18 17 17 17 17 17 16 15 15 14 14 13 12 12 12 12 12 13 13 12 11 11 10 10
21 20 20 20 19 18 17 16 16 16 17 17 17 18 17 15 17 16 16 15 15 15 15 14 13 13 13 11 12 11 12 13 12 11 11 10 10 10
20 19 19 18 18 18 16 16 16 17 16 16 16 16 15 14 14 15 16 15 15 15 15 12 12 13 12 11 11 12 13 12 12 11 11 10 10 10
18 17 17 17 16 16 16 16 15 15 14 14 15 16 15 15 16 15 14 14 14 14 14 11 11 12 11 10 11 12 13 12 12 12 11 10 10 10
16 16 15 15 15 15 14 15 15 15 14 13 13 13 14 14 14 14 13 12 12 12 12 12 11 11 11 12 12 12 12 12 11 11 11 10 10 10
13 13 13 14 14 14 14 14 14 13 13 13 12 12 12 12 12 13 13 12 12 13 12 12 11 11 11 12 12 12 12 11 11 11 10 10 10 10

GFSNE_850_temp_042.txt.gz
Temp
19 19 19 19 19 19 19 19 19 19 19 21 20 20 20 20 19 19 19 18 18 17 17 17 17 17 17 16 16 16 15 15 15 15 14 14 14 14
19 19 19 19 19 19 19 19 19 19 19 20 21 20 21 20 20 20 19 19 18 18 18 17 17 17 17 16 16 16 15 15 15 15 15 14 14 14
20 20 20 20 20 19 19 19 19 19 19 21 21 21 21 21 20 20 20 19 19 19 18 18 17 17 17 16 16 16 15 15 15 15 14 14 14 14
20 20 20 20 20 21 20 21 20 20 20 21 21 22 21 21 21 20 20 20 20 20 19 18 18 17 17 16 16 16 16 15 15 15 14 14 14 14
20 20 20 20 21 21 21 21 21 21 21 21 22 22 22 22 21 21 21 20 20 20 20 19 18 18 17 17 16 16 16 16 15 15 15 14 14 14
20 20 20 20 21 21 21 21 21 21 20 20 20 20 21 21 21 21 21 21 20 20 20 20 19 19 18 17 17 16 16 16 16 15 15 15 14 14
21 21 21 21 22 21 21 22 22 21 21 21 21 21 21 21 21 21 20 20 20 20 20 20 20 19 19 18 18 18 17 17 16 16 15 15 15 14
22 22 22 22 22 22 22 21 21 20 20 20 20 20 20 20 20 20 20 20 19 20 20 21 20 20 20 19 19 18 18 18 17 16 15 15 15 14
22 22 22 22 22 22 22 21 21 20 20 19 19 20 20 20 20 19 19 19 19 19 18 18 18 19 19 19 19 19 18 17 17 16 15 15 14 14
22 22 22 22 22 22 21 21 21 21 20 19 19 19 19 19 18 18 18 18 18 18 18 17 18 18 19 19 19 20 18 19 17 17 15 15 14 13
22 22 22 21 21 21 20 20 21 20 19 20 20 20 19 19 19 18 18 17 18 18 18 17 19 19 18 18 19 19 19 18 18 17 16 15 14 13
22 21 21 21 20 20 20 19 19 20 20 20 20 20 20 20 20 19 19 19 19 17 20 17 19 17 15 18 17 16 17 17 18 17 16 15 14 12
21 21 21 21 20 20 20 20 20 19 20 19 20 19 19 20 20 20 20 19 19 19 20 17 17 16 15 16 16 16 16 17 17 16 15 15 14 13
21 21 20 20 20 20 19 20 19 19 19 19 19 19 19 19 19 19 18 18 18 17 18 17 17 16 16 15 14 15 16 16 16 15 14 14 13 12
20 20 21 20 20 20 20 20 20 20 19 20 20 19 19 18 18 18 17 17 17 17 16 16 17 16 16 16 15 15 14 15 15 14 13 13 12 12
21 21 20 20 20 20 20 20 20 20 20 20 20 18 18 17 18 18 17 18 17 19 17 16 16 15 15 15 15 15 14 13 15 13 13 12 11 12
20 20 20 20 20 20 20 20 20 20 20 18 17 17 17 17 18 18 18 17 16 16 16 17 18 15 14 14 15 15 15 14 13 12 12 11 11 11
20 20 20 19 20 20 20 20 19 19 18 17 16 17 17 17 17 17 16 15 15 15 15 17 18 18 14 13 14 15 15 14 12 12 12 12 11 9
19 19 19 19 19 19 19 19 18 18 17 16 16 16 16 16 16 16 15 14 13 13 14 15 16 13 12 13 13 13 14 13 11 9 10 11 11 10
18 19 19 19 18 17 17 16 16 16 16 16 15 15 15 15 15 15 14 13 12 12 12 13 12 11 12 11 11 10 10 11 10 10 11 11 10 10
17 17 17 16 16 16 15 15 15 15 15 15 15 15 14 14 14 14 13 13 11 12 12 11 11 10 10 9 9 9 9 9 11 11 11 10 9 8
15 15 14 14 13 14 14 14 14 13 14 14 15 14 12 12 13 13 13 12 12 11 11 11 12 11 11 11 10 10 9 9 9 9 9 10 9 9
13 13 12 12 12 12 12 12 13 13 13 13 13 12 12 12 12 12 13 12 12 12 11 11 11 12 11 10 10 10 10 9 9 9 8 8 9 10

GFSNE_850_temp_045.txt.gz
Temp
19 19 19 19 19 19 19 19 18 19 20 20 20 20 20 20 20 20 20 19 19 18 18 18 17 17 17 16 16 16 16 15 15 15 15 15 15 14
19 19 19 19 19 19 19 19 19 19 19 19 20 21 21 21 21 20 20 20 20 19 19 19 18 18 17 17 17 16 16 16 15 15 15 15 15 14
19 20 20 19 19 20 20 20 20 19 19 19 21 22 22 21 21 21 21 21 21 20 20 19 19 18 18 17 17 17 16 16 15 15 15 15 14 15
20 20 20 20 20 20 20 20 21 20 20 21 22 22 22 22 22 21 21 21 21 21 20 20 19 19 19 18 17 17 17 16 16 16 15 15 15 15
20 20 20 20 20 20 21 21 21 21 21 21 22 21 22 22 22 22 22 22 22 21 21 21 20 20 20 19 18 18 17 17 16 16 16 15 15 14
21 20 21 20 21 21 21 21 21 21 20 21 21 20 20 21 22 22 22 22 21 21 21 21 21 20 20 20 19 18 18 18 17 17 16 16 16 15
21 21 21 21 21 21 21 21 21 20 20 19 18 18 19 18 19 19 18 19 20 19 21 21 20 21 21 20 20 19 19 18 18 17 17 16 16 15
22 22 22 22 22 22 22 21 20 20 21 20 19 19 19 19 18 18 18 18 18 18 18 18 18 19 19 20 20 20 20 19 19 18 17 17 16 15
23 23 23 23 23 23 23 22 22 21 21 20 20 20 20 19 19 19 18 18 18 18 18 20 18 19 20 20 20 20 20 19 19 18 18 17 16 16
23 23 23 23 23 23 23 22 22 22 22 22 21 21 20 19 19 19 18 18 19 19 17 17 18 17 18 17 19 19 19 18 17 17 17 17 17 16
23 23 23 23 23 23 22 22 22 22 21 21 21 20 20 19 20 19 19 19 18 20 17 17 17 17 17 17 17 17 19 20 18 17 17 17 17 16
23 23 23 23 23 22 21 21 21 21 20 20 19 20 20 20 20 19 19 19 19 18 18 18 18 17 17 17 17 16 16 16 17 16 16 16 16 15
22 22 22 23 22 21 20 20 20 20 20 20 20 20 20 21 20 20 19 19 19 18 19 17 17 17 16 16 15 15 15 15 16 16 16 16 15 14
21 21 21 21 21 20 20 20 20 20 20 19 20 20 19 19 19 19 18 18 18 18 17 16 16 16 16 15 15 15 15 15 15 15 15 16 15 13
20 20 20 20 20 20 20 20 20 19 20 19 19 19 20 19 18 18 18 18 18 18 17 17 16 15 15 15 15 14 14 15 15 15 15 15 15 13
20 20 20 21 20 20 20 20 19 19 19 19 19 20 19 18 18 18 18 18 18 18 18 17 15 15 15 15 13 14 13 13 14 14 14 14 14 14
20 20 20 20 20 20 19 20 20 19 19 20 19 19 18 18 18 18 17 17 14 14 14 15 15 16 16 15 12 12 12 13 13 14 14 13 12 12
21 20 20 20 20 19 19 19 19 19 19 18 18 18 18 18 17 17 16 14 13 15 14 13 14 16 16 16 12 10 11 12 12 13 13 11 10 9
20 20 19 19 19 19 18 18 18 18 18 17 17 17 17 16 16 14 13 12 12 14 14 12 14 14 13 10 11 9 9 9 11 12 11 10 8 7
19 19 19 18 18 18 18 17 17 17 16 16 16 15 15 14 12 13 12 14 14 14 13 13 13 13 12 10 9 9 9 9 10 10 9 8 8 9
18 18 18 18 17 17 17 16 16 15 15 15 15 14 13 12 12 13 13 14 14 13 13 13 13 12 12 11 11 10 9 9 9 9 9 8 8 8
18 17 16 16 16 16 15 15 14 13 13 13 13 13 13 12 12 12 12 13 13 13 13 12 12 10 10 11 10 10 10 9 9 10 10 10 9 9
15 15 14 12 12 12 12 13 13 13 12 12 12 12 12 12 12 12 13 13 12 13 12 11 10 10 11 11 10 10 11 10 9 10 11 10 10 9

GFSNE_850_temp_048.txt.gz
Temp
18 18 18 20 19 19 19 20 20 22 23 22 21 21 20 20 19 20 20 20 20 19 19 19 19 18 18 18 17 17 17 17 16 16 16 15 15 15
19 18 18 19 19 19 19 20 20 20 21 22 22 21 20 21 20 21 21 21 21 21 20 20 20 19 19 18 18 17 17 17 17 16 16 15 15 15
18 18 18 18 19 20 20 19 20 20 20 22 22 21 21 23 22 22 22 22 21 21 21 21 21 20 20 19 19 18 18 17 17 17 16 16 15 15
18 18 18 19 20 20 19 19 20 20 20 20 20 20 20 20 21 22 22 20 20 20 21 22 21 21 20 20 20 19 19 18 18 17 17 16 15 15
19 19 19 18 18 20 19 20 20 19 19 19 20 20 21 20 20 19 19 19 20 19 19 21 21 21 21 21 20 20 20 19 18 18 17 17 16 15
19 19 19 19 19 19 19 19 19 19 20 20 20 21 22 21 21 20 20 20 21 21 20 19 19 19 20 21 21 21 20 20 19 18 18 17 16 16
19 19 20 20 20 21 20 20 19 19 20 21 21 22 22 22 22 21 21 21 21 21 21 21 21 20 20 19 19 19 20 20 20 19 18 18 17 17
20 20 21 21 22 22 21 21 21 20 20 20 21 21 21 20 21 21 21 21 21 21 20 20 20 20 19 19 19 19 18 19 18 18 17 18 18 17
20 20 20 21 21 22 22 23 23 22 22 21 21 21 21 20 19 19 20 20 19 19 19 19 19 19 19 20 20 19 18 18 18 18 17 17 17 17
21 20 21 23 22 21 20 20 20 20 21 22 23 23 22 20 19 19 19 20 19 19 18 19 18 19 19 19 19 18 18 18 17 17 18 17 16 16
23 23 23 23 24 24 23 23 22 21 20 20 20 21 20 20 20 19 20 19 20 18 19 18 19 19 19 18 18 19 18 17 17 17 17 17 17 16
23 24 24 24 24 24 24 23 22 21 19 19 19 19 19 19 20 20 19 19 19 19 19 18 18 18 17 17 18 18 17 17 17 16 17 16 16 16
21 21 21 21 24 24 22 22 21 19 19 19 19 19 19 19 20 20 20 19 19 19 19 18 17 17 17 18 17 17 17 17 16 16 15 15 15 15
22 22 21 20 21 22 21 21 21 20 19 20 20 20 20 20 19 20 20 19 18 18 18 18 16 16 16 16 17 17 16 16 15 14 14 14 14 15
22 20 20 20 20 21 21 20 20 20 20 19 19 20 19 19 20 18 18 17 17 16 16 16 14 14 14 15 15 15 14 14 13 13 13 13 13 14
22 22 21 21 20 20 20 21 20 19 20 19 19 20 19 19 18 18 18 17 17 17 16 15 15 15 13 14 13 13 14 11 10 10 11 12 13 14
22 21 20 20 20 20 21 20 20 20 19 19 19 19 18 18 17 17 17 16 16 16 15 15 15 16 16 16 13 15 14 14 13 13 13 13 13 13
21 20 20 20 20 20 20 20 20 19 18 18 17 17 17 17 17 16 16 15 16 16 15 15 14 15 17 15 14 13 14 14 11 11 12 12 12 11
20 19 20 20 20 19 19 19 18 17 17 16 16 16 16 16 15 16 16 16 16 14 14 14 13 12 13 11 11 13 12 11 9 10 9 10 9 8
20 20 19 19 19 18 17 16 15 15 16 16 16 15 15 15 15 15 14 13 13 13 14 14 12 12 12 10 9 11 12 9 9 8 8 7 6 6
17 18 18 18 18 18 17 17 17 16 16 15 15 14 14 13 13 13 13 13 13 12 13 13 12 14 12 11 10 11 11 10 10 8 8 7 6 6
17 17 17 17 17 17 16 16 15 14 14 14 13 13 13 13 13 13 13 13 12 12 12 12 12 12 12 12 12 10 9 10 10 9 9 10 10 9
17 16 16 15 15 14 14 13 12 12 12 12 12 12 12 12 12 12 12 12 12 12 12 12 13 12 12 12 11 10 9 9 9 8 8 9 9 9